SL-16 DEB

Satellite information

Favourite Embed

Satellite Type and Status

DEBRISIN ORBIT

Key statistics

Satellite SL-16 DEB at a glance.

Uptime

11992

Days in orbit

Revolutions

≈ 14.7

Per day

Orbit

LEO

Low Earth Orbit

Inclination

71.1

Latest

Satellite identification and parameters

Extended collection of information and parameters for SL-16 DEB.

Object identification

Identified? True

Debris? True

Object name: SL-16 DEB

International designator: 1992-093BF

Object number (NORAD): 22366

Object ID (CCSDS): 22366

Country: COMMONWEALTH OF INDEPENDENT STATES (CIS)

Current information (Y/N): Y

RCS size: MEDIUM

Orbital parameters

Period: 98.245 minutes

Inclination: 71.1058 deg

SMA: 7052.904 km

Apoapsis: 721.82 km

Periapsis: 627.718 km

RAAN: 190.8326 deg

Eccentricy: 0.00667114

Argument of periapsis: 349.2836 deg

Mean anomaly: 110.1228 deg

Mean motion: 14.65719198 rev/day

Mean motion (dot): 0.0002422 rev/day2

B* drag term: 0.0042960158 1/REarth

Two-line elements (TLE)

Creation date: Oct. 25, 2025, 3:11 a.m.

Reference frame: TEME

Reference center: EARTH

Epoch: Oct. 25, 2025, 12:17 a.m. UTC

TLE line 0: 0 SL-16 DEB

TLE line 1: 1 22366U 92093BF 25298.01206911 .00024220 00000-0 42960-2 0 9991

TLE line 2: 2 22366 71.1058 190.8326 0066711 349.2836 110.1228 14.65719198689568

Live tracking on map

Real-time ground track for satellite SL-16 DEB.

In-orbit conjunctions

A list of the most updated potential collisions computed for object SL-16 DEB.

Target Orbit TCA Probability of collision Miss distance Type
FENGYUN 1C DEB SSO 2025-06-18 04:59:06 0.0001543612 96.0 (m) DEBRIS
FENGYUN 1C DEB SSO 2024-09-28 04:25:06 0.001013949 941.0 (m) DEBRIS
SUNSAT SSO 2024-09-08 06:45:17 0.0001034076 919.0 (m) PAYLOAD

Associated space launch

Second generation ELING satellite

SL-16 DEB was lifted into orbit during the mission ‘Zenit-2 | Tselina-2 12’, on board a Zenit-2 space rocket.

The launch took place on Dec. 25, 1992, 5:56 a.m. from 45/1.

For more information about the launch, click the button.

Launch to space Zenit-2 | Tselina-2 12
Zenit-2 | Tselina-2 12

Agency: N/A

Status: Launch Successful

Launch date: Dec. 25, 1992, 5:56 a.m. UTC

Rocket: Zenit-2

Launch pad: 45/1

Location: Baikonur Cosmodrome, Republic of Kazakhstan

...

Latest news about this satellite

There are no fresh news available about this satellite. Check back as we update our databases every day.


Newsletter sign-up

Weekly statistics, charts and insights to help you stay on top of the space industry.